Vorticity
-1 10 2 10 4 5 10 5 4 8 10 5 7 9 5 6 8 10 8 9 8 9 33 10 15 15 10 3 11 11 28 7 4 21 13 7 6 -1 13 10 1 17 30 8 7 21 14 -33 10 28 6 15 14 15
1 2 7 7 5 6 16 7 6 9 18 6 2 10 4 6 9 9 10 10 9 13 13 30 8 12 7 6 17 12 5 10 3 14 13 5 11 29 -3 27 5 4 7 11 17 1 1 41 -14 11 11 12 10 10
7 11 1 4 7 12 9 11 6 11 20 7 9 7 3 7 10 10 10 8 8 18 28 0 11 5 12 18 13 11 9 8 1 2 9 16 14 4 9 8 7 -1 15 10 30 -10 0 15 -0 16 12 12 12 10
13 11 6 8 7 3 12 7 8 18 17 -1 13 4 4 8 10 10 9 9 18 6 20 8 13 14 20 12 9 12 8 10 3 7 4 12 24 14 -0 -4 2 9 15 -2 12 -2 25 -17 12 13 12 14 15 12
8 12 4 15 4 9 9 6 14 25 -10 13 8 2 7 9 10 10 9 18 7 18 16 15 21 9 16 2 14 6 9 12 8 3 2 6 15 22 27 22 19 15 6 6 -2 3 8 11 13 12 14 13 12 14
6 14 8 11 9 4 7 10 14 4 20 9 3 5 7 10 11 9 16 11 13 20 14 24 13 14 2 14 6 17 9 9 2 -1 -0 -0 6 29 28 7 8 7 5 1 3 4 10 12 14 15 14 13 14 15
12 15 10 8 3 9 5 12 7 26 8 7 2 6 9 9 10 11 7 14 20 15 20 12 8 0 13 14 1 16 9 5 6 6 8 6 11 25 20 20 15 6 7 6 5 7 18 16 20 14 12 15 14 13
19 21 17 8 6 7 9 6 32 8 8 2 4 8 9 10 7 8 17 21 19 14 17 10 5 13 -2 14 20 13 12 9 5 10 12 6 12 33 13 -10 8 17 20 14 13 16 18 18 12 12 13 10 11 12
15 19 16 9 7 6 5 32 11 8 3 4 7 8 10 10 7 14 20 21 6 13 13 11 7 10 -14 -12 7 24 15 12 14 11 10 17 14 9 5 22 20 22 22 17 16 17 17 14 13 11 9 9 10 10
15 24 14 10 7 7 25 21 10 7 3 6 10 11 18 -1 15 20 20 4 18 18 3 10 15 6 8 1 -2 40 20 14 11 16 17 19 6 12 16 19 21 21 20 19 20 14 12 11 10 9 10 8 10 9
13 17 15 8 7 22 23 11 9 3 7 9 9 9 6 13 26 22 10 12 17 12 14 -3 6 7 5 -2 1 37 10 11 14 7 16 9 -4 17 17 19 18 18 17 16 14 15 14 12 10 10 10 9 9 9
14 16 9 6 26 25 11 10 2 4 9 9 7 8 20 30 14 14 6 5 17 5 -9 -4 0 5 14 45 28 13 13 12 7 2 20 6 5 16 15 16 15 15 13 12 12 11 11 11 10 8 8 10 9 10
13 9 6 26 20 10 10 2 6 9 11 8 13 27 15 15 6 11 3 -8 11 5 8 17 23 32 32 24 9 11 10 7 7 19 10 4 15 15 14 13 13 12 10 9 9 10 9 10 10 10 10 11 12 12
6 10 23 24 12 9 2 6 10 11 8 12 21 10 13 11 7 -11 10 12 8 9 19 28 31 13 12 11 7 11 9 12 12 12 9 11 12 14 13 11 9 9 8 9 10 10 9 9 11 13 13 11 12 12
16 23 22 12 8 2 5 9 10 8 8 13 20 13 11 -8 7 11 12 11 8 11 24 29 27 10 17 1 14 9 11 13 9 8 13 9 11 13 11 9 9 9 9 10 9 9 11 11 11 10 12 14 14 13
21 18 8 12 1 4 10 10 8 8 8 15 12 3 2 8 10 12 12 8 8 13 28 27 16 15 7 10 13 7 10 10 7 21 8 10 12 13 13 11 9 10 9 12 13 16 15 14 14 12 11 9 14 13
17 12 14 0 6 10 9 9 8 9 14 9 4 9 9 11 10 11 11 9 7 14 23 25 12 8 14 13 12 11 5 1 13 16 8 10 10 12 11 13 11 11 11 12 8 5 8 8 12 13 12 14 9 9
6 7 1 8 11 10 8 6 10 9 8 4 10 6 11 9 10 11 10 10 8 10 20 23 10 8 -2 9 8 4 7 13 14 14 9 9 11 11 13 10 6 7 4 1 2 4 6 15 7 10 12 16 16 14
3 3 10 11 8 9 9 12 13 7 9 9 6 9 8 9 10 9 10 10 7 7 11 18 20 18 23 4 -3 -1 13 17 21 12 10 9 9 7 5 6 9 8 7 5 7 12 11 15 13 9 8 9 13 13
7 10 9 8 8 7 7 13 16 2 9 4 8 11 9 11 9 10 10 10 8 6 12 2 18 29 2 10 16 21 12 24 22 10 11 9 6 7 12 9 12 10 9 6 12 14 17 15 13 12 12 12 8 7
11 7 8 8 8 7 -1 13 7 7 8 15 12 9 5 12 10 9 9 11 9 13 9 11 17 31 15 11 -0 19 23 25 14 10 10 10 7 11 11 7 10 10 13 13 11 13 15 14 14 13 13 13 12 12
9 8 7 9 9 7 10 11 5 2 10 9 14 12 5 13 14 10 8 11 21 9 8 11 14 35 26 14 5 12 22 13 12 10 10 12 10 7 7 9 12 11 14 14 14 13 13 12 13 14 14 14 12 12
8 9 9 11 11 6 15 15 10 8 9 -1 11 9 9 10 11 12 13 -2 17 7 9 11 18 39 28 17 10 7 21 12 12 10 9 8 8 9 10 12 12 8 13 15 14 13 12 11 13 13 12 12 12 12
7 9 11 15 13 10 7 6 8 12 9 12 9 4 13 11 12 11 12 11 15 9 10 11 28 39 25 17 14 12 22 12 12 9 13 5 10 11 6 12 13 11 11 14 15 14 13 13 13 13 12 10 10 9
5 11 9 15 13 12 8 9 8 12 7 11 11 13 13 15 2 6 32 20 7 12 12 12 28 37 18 20 11 28 19 12 11 8 10 6 9 12 9 15 15 15 14 13 11 12 14 14 12 12 13 12 11 11
12 17 6 7 8 10 2 5 8 7 11 13 19 15 10 9 25 11 1 11 10 13 12 12 17 37 23 16 26 22 14 13 11 10 8 9 7 12 10 11 12 13 12 13 13 12 12 11 12 12 13 13 14 14
12 8 10 10 6 6 8 8 10 11 13 21 15 19 29 18 15 10 7 5 10 13 14 12 14 23 27 23 19 15 13 13 12 11 8 7 9 13 11 10 11 11 11 11 11 11 10 11 12 13 13 12 11 10
4 7 8 4 13 8 8 14 14 24 27 19 19 11 10 -5 -7 -3 -0 3 8 10 13 14 13 16 17 16 16 15 15 14 13 11 14 11 2 6 13 10 10 11 10 11 11 12 12 11 10 12 12 12 11 11
6 7 13 11 14 13 7 15 16 17 13 11 8 9 2 6 6 5 7 11 12 11 8 12 16 15 15 16 15 14 14 13 12 10 10 14 13 9 2 3 5 6 9 10 9 9 10 10 11 11 10 10 9 9
10 15 14 14 13 16 17 16 12 14 16 15 13 13 15 17 13 11 9 9 8 11 14 8 10 15 17 15 14 15 13 12 12 10 11 10 14 13 13 11 9 9 8 7 8 8 8 9 9 10 10 10 10 9
16 15 17 19 20 16 13 11 13 13 13 11 10 13 15 16 21 20 18 16 14 9 5 16 10 8 13 15 16 15 15 14 13 13 12 10 14 14 11 10 8 8 8 10 11 11 11 10 9 8 9 9 10 10
18 13 15 13 6 5 13 12 12 19 23 26 22 20 19 19 19 21 30 26 24 22 18 4 16 13 7 13 10 13 13 13 13 14 13 12 13 14 12 11 7 9 12 12 9 8 7 6 7 9 10 10 9 9
12 14 11 12 17 13 10 10 14 15 14 23 23 21 22 20 17 17 19 22 24 19 22 17 7 16 17 11 12 14 12 13 14 14 13 13 13 16 14 10 9 10 10 10 11 11 12 11 10 9 9 9 9 9
Height
3066 3069 3071 3072 3073 3073 3073 3072 3071 3069 3068 3067 3065 3063 3060 3056 3053 3050 3046 3042 3038 3034 3031 3027 3025 3022 3021 3019 3017 3014 3012 3009 3005 3004 3003 3002 3000 2999 2997 2996 2993 2989 2983 2979 2977 2976 2976 2971 2965 2959 2959 2952 2945 2937
3060 3062 3064 3066 3067 3067 3067 3067 3065 3064 3063 3062 3061 3059 3056 3053 3050 3046 3043 3039 3036 3033 3030 3026 3023 3021 3019 3017 3015 3013 3012 3009 3007 3006 3005 3001 2999 2997 2997 2995 2994 2992 2991 2987 2986 2983 2980 2974 2969 2964 2958 2951 2943 2938
3052 3055 3057 3058 3060 3061 3061 3060 3059 3058 3057 3058 3056 3054 3052 3050 3046 3043 3039 3035 3031 3028 3026 3023 3021 3018 3016 3015 3014 3014 3011 3010 3009 3007 3005 3001 3000 2996 2995 2994 2993 2992 2989 2986 2984 2980 2977 2974 2971 2965 2958 2952 2947 2941
3045 3048 3050 3052 3053 3054 3054 3054 3053 3052 3052 3052 3051 3050 3049 3046 3043 3040 3036 3032 3029 3025 3023 3021 3018 3015 3013 3013 3012 3011 3010 3009 3008 3005 3004 3002 2999 2996 2993 2992 2990 2990 2988 2985 2982 2978 2975 2973 2969 2963 2959 2953 2949 2943
3037 3040 3043 3046 3046 3048 3048 3048 3048 3046 3046 3047 3046 3045 3044 3041 3038 3035 3032 3028 3025 3025 3021 3017 3015 3013 3012 3011 3010 3009 3008 3006 3005 3004 3002 3000 2996 2993 2988 2986 2985 2985 2984 2983 2980 2977 2971 2968 2964 2961 2957 2952 2949 2945
3029 3033 3036 3038 3040 3041 3042 3042 3042 3041 3042 3042 3040 3041 3039 3037 3034 3031 3028 3026 3022 3019 3017 3016 3014 3012 3012 3011 3009 3008 3006 3004 3003 3001 2999 2996 2994 2991 2986 2983 2982 2981 2980 2978 2976 2975 2971 2966 2962 2959 2954 2950 2948 2944
3021 3025 3028 3031 3033 3035 3036 3036 3036 3037 3038 3037 3037 3036 3034 3032 3030 3028 3026 3022 3018 3016 3015 3013 3012 3012 3010 3009 3007 3004 3002 3001 2999 2997 2995 2993 2990 2988 2982 2979 2979 2977 2977 2976 2974 2973 2972 2967 2963 2959 2955 2951 2947 2943
3014 3018 3022 3025 3027 3029 3030 3030 3031 3032 3033 3033 3033 3031 3030 3028 3025 3023 3020 3017 3015 3014 3013 3012 3011 3011 3010 3008 3005 3002 2999 2998 2996 2994 2993 2990 2988 2984 2980 2978 2975 2972 2972 2972 2971 2970 2968 2967 2963 2960 2958 2955 2952 2949
3007 3012 3016 3019 3022 3023 3023 3024 3025 3027 3028 3029 3029 3027 3026 3024 3021 3020 3016 3014 3012 3014 3011 3010 3009 3009 3008 3006 3003 3000 2997 2995 2994 2992 2990 2988 2985 2983 2979 2975 2972 2970 2969 2968 2968 2968 2967 2966 2963 2962 2961 2958 2955 2953
3002 3007 3011 3015 3017 3017 3018 3018 3020 3021 3023 3025 3024 3023 3020 3020 3017 3017 3013 3013 3010 3009 3007 3007 3007 3006 3006 3003 3001 2999 2996 2995 2991 2991 2987 2984 2982 2980 2976 2974 2971 2969 2968 2968 2967 2968 2967 2966 2964 2964 2963 2961 2959 2958
2998 3002 3006 3009 3011 3012 3013 3015 3016 3017 3020 3021 3020 3019 3017 3014 3014 3013 3012 3012 3010 3008 3006 3005 3004 3003 3001 3001 2999 2996 2994 2993 2991 2990 2987 2983 2981 2979 2976 2974 2972 2971 2970 2970 2970 2970 2969 2968 2967 2967 2966 2965 2964 2963
2993 2997 3001 3004 3006 3007 3009 3011 3013 3016 3016 3017 3017 3014 3012 3011 3011 3012 3012 3011 3009 3007 3004 3002 3001 2997 2995 2994 2993 2994 2993 2992 2990 2988 2986 2983 2981 2979 2977 2976 2974 2973 2972 2972 2972 2972 2971 2971 2971 2970 2969 2968 2967 2965
2988 2993 2996 2998 3001 3003 3006 3008 3011 3013 3014 3014 3013 3010 3010 3011 3010 3009 3010 3009 3008 3005 3001 2997 2994 2992 2990 2991 2991 2992 2991 2990 2989 2986 2984 2983 2981 2980 2979 2977 2976 2975 2975 2975 2975 2974 2974 2974 2973 2972 2971 2971 2969 2967
2984 2988 2991 2994 2997 3000 3003 3006 3009 3010 3012 3011 3010 3009 3010 3008 3007 3008 3006 3004 3002 2998 2994 2990 2989 2989 2989 2990 2990 2990 2990 2988 2987 2984 2983 2983 2982 2981 2980 2979 2978 2978 2977 2977 2977 2977 2977 2976 2976 2975 2974 2973 2971 2970
2982 2985 2987 2990 2993 2997 3001 3003 3005 3007 3009 3008 3007 3007 3007 3007 3005 3003 3003 3001 2998 2994 2989 2986 2986 2988 2988 2989 2988 2988 2987 2985 2984 2982 2982 2982 2982 2982 2981 2981 2980 2979 2979 2979 2979 2979 2978 2978 2978 2977 2976 2975 2975 2973
2978 2982 2985 2987 2991 2996 2998 3000 3002 3003 3004 3005 3003 3003 3004 3004 3001 2999 2998 2997 2993 2990 2987 2985 2985 2985 2986 2986 2985 2984 2984 2982 2981 2980 2981 2981 2982 2982 2982 2981 2981 2981 2980 2980 2980 2980 2980 2980 2979 2978 2978 2978 2977 2976
2976 2981 2983 2987 2990 2994 2995 2997 2999 3000 3000 3001 3001 3001 2999 2999 2998 2996 2995 2992 2990 2988 2985 2984 2983 2982 2982 2981 2981 2980 2979 2980 2979 2979 2980 2981 2981 2981 2982 2982 2982 2982 2981 2981 2981 2981 2981 2981 2981 2980 2980 2980 2979 2979
2976 2978 2982 2986 2989 2992 2994 2995 2996 2997 2996 2998 2998 2997 2996 2995 2993 2993 2992 2989 2988 2985 2982 2982 2981 2979 2977 2975 2975 2977 2977 2977 2977 2977 2979 2980 2981 2981 2982 2982 2982 2981 2981 2982 2982 2981 2982 2982 2982 2981 2981 2981 2981 2982
2977 2979 2980 2985 2988 2991 2993 2994 2994 2992 2993 2994 2994 2993 2992 2992 2991 2988 2987 2985 2984 2982 2980 2978 2976 2973 2973 2973 2973 2973 2974 2974 2974 2975 2977 2978 2980 2981 2981 2981 2981 2981 2981 2981 2981 2980 2982 2982 2981 2982 2983 2983 2983 2984
2975 2978 2981 2983 2986 2988 2991 2991 2992 2992 2991 2992 2990 2988 2988 2988 2986 2985 2983 2982 2980 2978 2976 2974 2971 2970 2969 2969 2969 2969 2970 2970 2971 2973 2975 2976 2978 2979 2980 2980 2980 2980 2980 2980 2980 2981 2981 2981 2981 2982 2983 2985 2985 2986
2976 2978 2980 2982 2984 2986 2988 2988 2990 2990 2989 2988 2986 2985 2985 2984 2983 2980 2978 2977 2976 2974 2971 2969 2966 2963 2963 2964 2965 2965 2966 2967 2969 2971 2973 2975 2977 2978 2979 2979 2979 2979 2979 2979 2979 2979 2979 2980 2981 2982 2984 2985 2986 2988
2976 2978 2980 2980 2982 2985 2986 2985 2988 2988 2988 2986 2983 2982 2980 2979 2977 2976 2974 2972 2970 2969 2966 2963 2960 2957 2957 2959 2961 2962 2963 2965 2967 2969 2971 2973 2975 2976 2977 2978 2978 2978 2978 2977 2978 2978 2979 2980 2981 2983 2984 2985 2987 2988
2975 2978 2979 2980 2982 2983 2984 2984 2985 2985 2984 2982 2980 2978 2976 2974 2973 2972 2970 2968 2966 2963 2960 2957 2954 2951 2951 2953 2956 2958 2960 2962 2965 2967 2970 2972 2974 2975 2976 2976 2977 2977 2977 2977 2977 2978 2980 2981 2982 2984 2985 2986 2988 2989
2975 2977 2978 2979 2980 2980 2981 2982 2982 2981 2980 2978 2976 2973 2972 2970 2969 2966 2964 2963 2961 2958 2956 2953 2949 2946 2947 2949 2952 2954 2956 2959 2962 2965 2968 2971 2973 2974 2975 2976 2976 2977 2977 2977 2977 2978 2980 2981 2983 2984 2986 2987 2989 2990
2977 2977 2978 2977 2978 2979 2979 2979 2978 2977 2975 2974 2972 2970 2968 2967 2964 2961 2959 2958 2957 2955 2952 2949 2945 2943 2945 2947 2949 2950 2953 2957 2960 2963 2967 2969 2971 2973 2975 2975 2976 2976 2976 2977 2979 2979 2980 2981 2983 2984 2986 2987 2989 2991
2973 2975 2977 2976 2976 2976 2975 2975 2974 2972 2971 2969 2967 2965 2964 2963 2961 2958 2956 2955 2954 2952 2949 2947 2944 2942 2943 2944 2946 2949 2952 2955 2958 2962 2965 2967 2970 2971 2973 2974 2975 2977 2977 2978 2979 2980 2981 2982 2984 2985 2986 2987 2989 2991
2973 2974 2974 2973 2973 2973 2972 2970 2969 2968 2966 2964 2962 2961 2960 2959 2956 2955 2954 2953 2952 2950 2948 2946 2944 2943 2943 2944 2946 2949 2951 2954 2958 2961 2963 2966 2968 2970 2972 2974 2975 2976 2977 2978 2979 2981 2982 2983 2984 2985 2987 2988 2989 2990
2972 2971 2971 2971 2969 2968 2966 2965 2963 2962 2960 2959 2958 2957 2956 2954 2954 2953 2952 2951 2949 2948 2947 2945 2945 2945 2945 2945 2947 2949 2951 2954 2957 2959 2962 2964 2966 2969 2970 2972 2974 2975 2977 2978 2979 2981 2982 2983 2984 2985 2987 2988 2989 2990
2968 2968 2967 2966 2965 2963 2962 2961 2959 2957 2957 2955 2954 2953 2951 2950 2950 2948 2947 2947 2946 2945 2945 2944 2944 2944 2944 2945 2946 2948 2950 2952 2955 2957 2960 2962 2964 2966 2968 2970 2972 2974 2975 2977 2978 2980 2981 2982 2984 2985 2986 2987 2988 2990
2965 2964 2962 2961 2960 2958 2958 2956 2954 2952 2951 2950 2948 2946 2945 2944 2943 2942 2942 2942 2942 2942 2942 2942 2942 2942 2943 2943 2945 2946 2948 2950 2952 2954 2956 2958 2961 2963 2965 2967 2969 2971 2973 2975 2976 2978 2979 2980 2982 2983 2984 2985 2986 2987
2960 2959 2958 2956 2955 2954 2952 2951 2949 2947 2945 2944 2941 2939 2938 2936 2936 2935 2934 2935 2935 2936 2937 2937 2938 2939 2940 2941 2942 2943 2945 2947 2948 2950 2952 2954 2957 2959 2961 2964 2966 2968 2970 2972 2973 2975 2976 2978 2979 2980 2981 2982 2983 2984
2955 2954 2954 2952 2952 2951 2949 2946 2944 2942 2939 2937 2935 2933 2931 2929 2928 2928 2928 2927 2927 2928 2930 2932 2933 2934 2935 2937 2938 2939 2941 2943 2945 2947 2949 2951 2953 2955 2957 2960 2962 2964 2966 2968 2969 2971 2972 2973 2975 2976 2977 2978 2979 2979
2952 2951 2950 2950 2948 2946 2945 2943 2939 2937 2934 2932 2930 2928 2927 2926 2925 2925 2923 2922 2922 2923 2924 2925 2927 2929 2931 2933 2934 2935 2937 2939 2940 2942 2944 2946 2949 2951 2953 2955 2957 2959 2961 2962 2964 2965 2966 2968 2969 2970 2971 2972 2973 2973